CEB4844 RPMR-RPVI

Flight info

Callsign CEB4844
Flight time N/A
Altitude 36000
Route LATIA4P LATIA W6 LUMVI W7 RUXEM
Aircraft A320/M-SDE3FGHIRWY/LB1

Departure

Time 2026-04-27 21:42
Airport General Santos International Airport (RPMR)

Arrival

Time N/A
Airport Iloilo International Airport (RPVI)
Time Latitude Longitude Altitude Speed Heading
2026-04-27 20:51 6.05780 125.09948 514 ft 0 kts 83°
2026-04-27 21:08 6.05780 125.09947 514 ft 0 kts 83°
2026-04-27 21:26 6.05780 125.09945 512 ft 3 kts 83°
2026-04-27 21:26 6.05777 125.09919 514 ft 4 kts 89°
2026-04-27 21:26 6.05779 125.09892 514 ft 4 kts 107°
2026-04-27 21:27 6.05791 125.09872 514 ft 4 kts 162°
2026-04-27 21:27 6.05796 125.09870 514 ft 1 kts 173°
2026-04-27 21:30 6.05792 125.09871 514 ft 2 kts 173°
2026-04-27 21:31 6.05773 125.09873 513 ft 3 kts 173°
2026-04-27 21:31 6.05751 125.09876 516 ft 3 kts 173°
2026-04-27 21:31 6.05726 125.09879 514 ft 4 kts 173°
2026-04-27 21:31 6.05699 125.09882 514 ft 4 kts 173°
2026-04-27 21:32 6.05668 125.09886 514 ft 5 kts 173°
2026-04-27 21:32 6.05635 125.09890 514 ft 5 kts 173°
2026-04-27 21:32 6.05600 125.09894 514 ft 5 kts 173°
2026-04-27 21:32 6.05563 125.09898 514 ft 6 kts 173°
2026-04-27 21:33 6.05524 125.09903 514 ft 6 kts 173°
2026-04-27 21:33 6.05483 125.09908 514 ft 6 kts 173°
2026-04-27 21:33 6.05439 125.09910 514 ft 6 kts 188°
2026-04-27 21:33 6.05418 125.09879 514 ft 6 kts 258°
2026-04-27 21:34 6.05413 125.09841 515 ft 5 kts 263°
2026-04-27 21:34 6.05408 125.09805 515 ft 5 kts 263°
2026-04-27 21:34 6.05404 125.09771 515 ft 5 kts 263°
2026-04-27 21:34 6.05400 125.09737 515 ft 5 kts 263°
2026-04-27 21:35 6.05396 125.09701 514 ft 6 kts 263°
2026-04-27 21:35 6.05370 125.09675 514 ft 6 kts 200°
2026-04-27 21:35 6.05329 125.09677 514 ft 6 kts 173°
2026-04-27 21:35 6.05285 125.09682 515 ft 7 kts 173°
2026-04-27 21:36 6.05237 125.09688 513 ft 7 kts 173°
2026-04-27 21:36 6.05187 125.09694 515 ft 7 kts 173°
2026-04-27 21:36 6.05136 125.09701 514 ft 7 kts 173°
2026-04-27 21:36 6.05088 125.09706 514 ft 7 kts 173°
2026-04-27 21:37 6.05044 125.09712 515 ft 6 kts 173°
2026-04-27 21:37 6.05006 125.09716 515 ft 5 kts 173°
2026-04-27 21:37 6.04972 125.09721 516 ft 5 kts 173°
2026-04-27 21:37 6.04939 125.09725 516 ft 5 kts 173°
2026-04-27 21:38 6.04906 125.09729 516 ft 5 kts 173°
2026-04-27 21:38 6.04869 125.09733 516 ft 7 kts 173°
2026-04-27 21:38 6.04790 125.09743 518 ft 16 kts 173°
2026-04-27 21:38 6.04663 125.09758 514 ft 20 kts 173°
2026-04-27 21:39 6.04523 125.09776 515 ft 13 kts 170°
2026-04-27 21:39 6.04503 125.09849 515 ft 12 kts 84°
2026-04-27 21:39 6.04506 125.09930 514 ft 11 kts 114°
2026-04-27 21:39 6.04436 125.09951 514 ft 11 kts 176°
2026-04-27 21:40 6.04391 125.09910 514 ft 9 kts 258°
2026-04-27 21:40 6.04386 125.09848 515 ft 8 kts 264°
2026-04-27 21:40 6.04390 125.09798 515 ft 6 kts 302°
2026-04-27 21:40 6.04412 125.09790 516 ft 0 kts 352°
2026-04-27 21:41 6.04416 125.09789 516 ft 4 kts 352°
2026-04-27 21:41 6.04704 125.09754 514 ft 89 kts 353°
2026-04-27 21:41 6.05574 125.09646 515 ft 162 kts 353°
2026-04-27 21:41 6.06805 125.09500 1039 ft 187 kts 353°
2026-04-27 21:42 6.08163 125.09416 1718 ft 207 kts
2026-04-27 21:42 6.09649 125.09626 2446 ft 227 kts 14°
2026-04-27 21:42 6.11238 125.10125 3160 ft 251 kts 24°
2026-04-27 21:42 6.12805 125.10983 4188 ft 261 kts 37°
2026-04-27 21:43 6.14188 125.12192 5341 ft 266 kts 49°
2026-04-27 21:43 6.15347 125.13659 6489 ft 270 kts 54°
2026-04-27 21:43 6.16494 125.15175 7577 ft 275 kts 54°
2026-04-27 21:43 6.17666 125.16722 8673 ft 281 kts 54°
2026-04-27 21:44 6.18861 125.18296 9765 ft 286 kts 54°
2026-04-27 21:44 6.20079 125.19898 10737 ft 291 kts 54°
2026-04-27 21:44 6.21322 125.21527 11714 ft 296 kts 53°
2026-04-27 21:44 6.22764 125.23034 12659 ft 304 kts 40°
2026-04-27 21:45 6.24592 125.24162 13459 ft 319 kts 25°
2026-04-27 21:45 6.26798 125.24827 13922 ft 341 kts 13°
2026-04-27 21:45 6.29142 125.25348 14627 ft 348 kts 14°
2026-04-27 21:45 6.31522 125.25881 15414 ft 353 kts 14°
2026-04-27 21:46 6.33935 125.26429 16208 ft 358 kts 14°
2026-04-27 21:46 6.36376 125.26988 16998 ft 362 kts 14°
2026-04-27 21:46 6.38847 125.27556 17785 ft 367 kts 14°
2026-04-27 21:46 6.41390 125.27908 18494 ft 373 kts
2026-04-27 21:47 6.43992 125.27686 19148 ft 379 kts 349°
2026-04-27 21:47 6.46515 125.26862 19805 ft 385 kts 336°
2026-04-27 21:47 6.48818 125.25458 20461 ft 391 kts 323°
2026-04-27 21:47 6.50957 125.23748 21104 ft 395 kts 322°
2026-04-27 21:48 6.53116 125.22016 21735 ft 399 kts 322°
2026-04-27 21:48 6.55300 125.20268 22370 ft 403 kts 322°
2026-04-27 21:48 6.57508 125.18505 22939 ft 409 kts 323°
2026-04-27 21:48 6.59749 125.16718 23530 ft 413 kts 323°
2026-04-27 21:49 6.62010 125.14912 24066 ft 416 kts 323°
2026-04-27 21:49 6.64286 125.13091 24582 ft 420 kts 323°
2026-04-27 21:49 6.66582 125.11253 25062 ft 424 kts 323°
2026-04-27 21:49 6.68868 125.09421 25550 ft 428 kts 322°
2026-04-27 21:50 6.70445 125.08157 25908 ft 429 kts 322°
2026-04-27 21:50 6.72783 125.06286 26432 ft 432 kts 323°
2026-04-27 21:50 6.75915 125.03787 27124 ft 435 kts 322°
2026-04-27 21:50 6.78293 125.01887 27599 ft 439 kts 323°
2026-04-27 21:51 6.79908 125.00595 27909 ft 441 kts 322°
2026-04-27 21:51 6.82311 124.98670 28446 ft 442 kts 322°
2026-04-27 21:51 6.84723 124.96736 28964 ft 444 kts 322°
2026-04-27 21:51 6.87154 124.94799 29455 ft 447 kts 323°
2026-04-27 21:52 6.89774 124.93110 29925 ft 449 kts 333°
2026-04-27 21:52 6.92644 124.91854 30315 ft 451 kts 342°
2026-04-27 21:52 6.95685 124.91050 30731 ft 453 kts 349°
2026-04-27 21:52 6.98786 124.90413 31115 ft 456 kts 349°
2026-04-27 21:53 7.01904 124.89770 31503 ft 459 kts 349°
2026-04-27 21:53 7.05028 124.89127 32016 ft 457 kts 349°
2026-04-27 21:53 7.08142 124.88486 32573 ft 456 kts 348°
2026-04-27 21:53 7.11245 124.87847 33135 ft 455 kts 348°
2026-04-27 21:54 7.14339 124.87208 33699 ft 453 kts 348°
2026-04-27 21:54 7.17426 124.86570 34203 ft 452 kts 348°
2026-04-27 21:54 7.20463 124.85942 34655 ft 451 kts 348°
2026-04-27 21:54 7.23575 124.85298 35130 ft 450 kts 348°
2026-04-27 21:55 7.26630 124.84667 35590 ft 448 kts 348°
2026-04-27 21:55 7.29691 124.84038 35848 ft 448 kts 348°
2026-04-27 21:55 7.35678 124.82806 35920 ft 434 kts 348°
2026-04-27 21:56 7.44476 124.80980 35931 ft 429 kts 348°
2026-04-27 21:57 7.50322 124.79773 35947 ft 429 kts 348°
2026-04-27 21:57 7.56162 124.78565 35947 ft 429 kts 348°
2026-04-27 21:58 7.62015 124.77362 35957 ft 429 kts 348°
2026-04-27 21:58 7.67869 124.76157 35961 ft 429 kts 348°
2026-04-27 21:59 7.73722 124.74950 35976 ft 429 kts 348°
2026-04-27 21:59 7.79575 124.73741 35979 ft 429 kts 348°
2026-04-27 22:00 7.85394 124.72543 35976 ft 430 kts 347°
2026-04-27 22:00 7.91300 124.71322 35979 ft 431 kts 348°
2026-04-27 22:01 7.97127 124.70108 35972 ft 431 kts 348°
2026-04-27 22:01 8.03005 124.68885 35972 ft 431 kts 348°
2026-04-27 22:02 8.08889 124.67675 35965 ft 432 kts 348°
2026-04-27 22:02 8.14775 124.66461 35963 ft 431 kts 348°
2026-04-27 22:03 8.20653 124.65246 35969 ft 431 kts 348°
2026-04-27 22:03 8.26524 124.64031 35964 ft 430 kts 348°
2026-04-27 22:04 8.32390 124.62818 35953 ft 430 kts 348°
2026-04-27 22:04 8.38239 124.61579 35940 ft 429 kts 344°
2026-04-27 22:04 8.41041 124.60554 35938 ft 428 kts 333°
2026-04-27 22:05 8.43612 124.59051 35932 ft 427 kts 323°
2026-04-27 22:05 8.48153 124.55203 35935 ft 426 kts 319°
2026-04-27 22:06 8.52621 124.51328 35924 ft 426 kts 319°